星链-35831(STARLINK-35831)

导读 | 豆包AI

STARLINK-35805是美国SpaceX星链星座的组网卫星,于北京时间2025年11月6日发射升空,归入星链低轨互联网星座部署序列。它延续星链卫星设计,承担全球范围高速互联网接入服务的组网补网任务,进一步完善美国低轨卫星通信网络的覆盖密度与服务稳定性。

Basic Information
目录编号:
66359
目录名称:
STARLINK-35805
国际标识:
2025-254M
轨道中心:
EARTH
卫星名称:
星链-35831
卫星全名:
星链-35831(STARLINK-35831)
卫星状态:
在轨 (已飞行128 天)
发射日期:
2025-11-06 UTC
国别 :
美国 (US)
星等 :
--
Orbit Information
数据来源 国际轨道数据 AOE轨道数据
星历时间 2026-03-14T02:37:27+0800
13小时前
查看轨道信息
2026-03-11T06:00:00+0800
3天前
查看轨道信息
半长轴 6853.29km 6853.379km
偏心率 0.0000606 0.0000985
轨道倾角 53.161° 53.158°
近地点辐角 318.613° 66.704°
升交点赤经 213.305° 226.586°
平近点角 41.482° 13.336°
近地点 474.737km 474.566km
远地点 475.569km 475.918km
周期 94.104分钟 94.106分钟
每日圈数 15.302208 15.301912
Detailed Information
固有亮度:
5
最大亮度:
2.5
卫星平台:
Starlink V1.0
覆盖范围:
全球
运营商:
太空探索技术公司
运营商所在国:
美国
制造商(研发单位):
太空探索技术公司
制造商所在国:
美国
使用方式:
暂无
Satellite Introduction
Starlink 计划是 SpaceX 推出的全球卫星互联网项目,通过发射低轨道卫星,为全球尤其是偏远地区提供高速、低延迟的互联网服务。自 2019 年起,Starlink 已部署数千颗卫星,旨在缩小全球数字鸿沟,推动互联网普及。该项目还为军事、航空等行业提供通信支持,带来广泛经济效益。
2D Orbit Map
3D Orbit Map
Orbit Altitude Analysis Chart
Orbit Inclination Analysis Chart
Orbit Comprehensive Analysis Chart
View Comprehensive Chart